Overview Statistics Trail Chart Weather Telemetry Raw packets
 

This is the latest recevied weather packets stored in our database for station/object W0WFX-2. If no packets are shown the sender has not sent any weather packets the latest 10 day(s).

<< 1 2 3 4 5 6 >>
Time Temp. Humidity Pressure Rain* Wind** Luminosity Snow
1788638432 38.89° C 34% 1013.6 hPa 0 mm - 137 W/m² -
1788638127 38.89° C 34% 1013.3 hPa 0 mm - 144 W/m² -
1788637822 38.89° C 34% 1013.5 hPa 0 mm - 157 W/m² -
1788637522 38.33° C 38% 1013.6 hPa 0 mm - 479 W/m² -
1788637222 37.78° C 39% 1013.5 hPa 0 mm - 739 W/m² -
1788636922 37.78° C 36% 1013.5 hPa 0 mm - 588 W/m² -
1788636617 37.78° C 36% 1013.9 hPa 0 mm - 184 W/m² -
1788636312 37.78° C 36% 1013.8 hPa 0 mm - 169 W/m² -
1788636009 38.33° C 36% 1013.7 hPa 0 mm - 639 W/m² -
1788635707 37.78° C 36% 1013.8 hPa 0 mm - 678 W/m² -
1788635406 38.33° C 36% 1013.9 hPa 0 mm - 191 W/m² -
1788635104 38.89° C 33% 1014 hPa 0 mm - 801 W/m² -
1788634803 38.89° C 36% 1013.8 hPa 0 mm - 548 W/m² -
1788634499 38.89° C 34% 1014 hPa 0 mm - 752 W/m² -
1788634197 38.89° C 35% 1014 hPa 0 mm - 751 W/m² -
1788633892 39.44° C 34% 1014.1 hPa 0 mm - 802 W/m² -
1788633591 38.89° C 35% 1014.1 hPa 0 mm - 735 W/m² -
1788633291 38.33° C 35% 1014.2 hPa 0 mm - 828 W/m² -
1788632986 38.33° C 36% 1014.3 hPa 0 mm - 650 W/m² -
1788632686 37.78° C 37% 1014.4 hPa 0 mm - 707 W/m² -
1788632380 38.33° C 36% 1014.5 hPa 0 mm - 767 W/m² -
1788632075 38.89° C 36% 1014.5 hPa 0 mm - 682 W/m² -
1788631774 39.44° C 35% 1014.6 hPa 0 mm - 878 W/m² -
1788631469 38.89° C 36% 1014.5 hPa 0 mm - 811 W/m² -
1788631164 38.33° C 37% 1014.6 hPa 0 mm - 837 W/m² -

* Rain latest hour (hover to see other rain measurements)
** Current wind speed in m/s (hover to see current wind gust speed)